This is the latest recevied weather packets stored in our database for station/object W2EH. If no packets are shown the sender has not sent any weather packets the latest 10 day(s).
| Time | Temp. | Humidity | Pressure | Rain* | Wind** | Luminosity | Snow |
|---|---|---|---|---|---|---|---|
| 1777842775 | 26.11° C | 36% | 1017.3 hPa | 0 mm | - | 505 W/m² | - |
| 1777842475 | 26.11° C | 36% | 1017.7 hPa | 0 mm | - | 296 W/m² | - |
| 1777842173 | 26.67° C | 35% | 1017.9 hPa | 0 mm | - | 421 W/m² | - |
| 1777841868 | 26.67° C | 34% | 1018.1 hPa | 0 mm | - | 602 W/m² | - |
| 1777841565 | 26.67° C | 35% | 1017.8 hPa | 0 mm | - | 766 W/m² | - |
| 1777841261 | 26.67° C | 35% | 1018 hPa | 0 mm | - | 774 W/m² | - |
| 1777840959 | 26.67° C | 34% | 1018 hPa | 0 mm | - | 794 W/m² | - |
| 1777840656 | 26.67° C | 35% | 1018 hPa | 0 mm | - | 756 W/m² | - |
| 1777840354 | 26.67° C | 35% | 1018 hPa | 0 mm | - | 814 W/m² | - |
| 1777840051 | 26.67° C | 34% | 1018.3 hPa | 0 mm | - | 825 W/m² | - |
| 1777839749 | 26.67° C | 34% | 1018.4 hPa | 0 mm | - | 842 W/m² | - |
| 1777839446 | 26.67° C | 35% | 1018.6 hPa | 0 mm | - | 838 W/m² | - |
| 1777839144 | 26.67° C | 37% | 1018.4 hPa | 0 mm | - | 851 W/m² | - |
| 1777838840 | 26.67° C | 36% | 1018.7 hPa | 0 mm | - | 852 W/m² | - |
| 1777838536 | 26.67° C | 32% | 1018.7 hPa | 0 mm | - | 862 W/m² | - |
| 1777838233 | 26.67° C | 35% | 1018.8 hPa | 0 mm | - | 874 W/m² | - |
| 1777837930 | 26.67° C | 35% | 1019 hPa | 0 mm | - | 880 W/m² | - |
| 1777837627 | 26.67° C | 36% | 1018.9 hPa | 0 mm | - | 889 W/m² | - |
| 1777837323 | 26.11° C | 37% | 1018.9 hPa | 0 mm | - | 884 W/m² | - |
| 1777837020 | 26.11° C | 35% | 1019 hPa | 0 mm | - | 902 W/m² | - |
| 1777836715 | 26.11° C | 35% | 1019.1 hPa | 0 mm | - | 912 W/m² | - |
| 1777836411 | 26.67° C | 34% | 1019.2 hPa | 0 mm | - | 923 W/m² | - |
| 1777836107 | 26.67° C | 32% | 1019.5 hPa | 0 mm | - | 915 W/m² | - |
| 1777835803 | 26.11° C | 30% | 1019.5 hPa | 0 mm | - | 928 W/m² | - |
| 1777835501 | 26.11° C | 34% | 1019.5 hPa | 0 mm | - | 935 W/m² | - |
* Rain latest hour (hover to see other rain measurements)
** Current wind speed in m/s (hover to see current wind gust speed)